Date,TemperatureHighF,TemperatureAvgF,TemperatureLowF,DewpointHighF,DewpointAvgF,DewpointLowF,HumidityHigh,HumidityAvg,HumidityLow,PressureMaxIn,PressureMinIn,WindSpeedMaxMPH,WindSpeedAvgMPH,GustSpeedMaxMPH,PrecipitationSumIn
2013-1-1,30.9,17.6,10.2,10.0,3.2,-2.4,67,53,41,23.27,23.18,13,3,13,0.00
2013-1-2,33.6,16.9,10.0,12.4,0.2,-6.6,54,47,41,23.39,23.24,14,4,15,0.00
2013-1-3,38.1,19.3,8.6,15.4,0.7,-7.9,46,44,39,23.42,23.30,19,3,19,0.00
2013-1-4,47.3,29.1,17.6,22.4,8.3,-0.9,44,41,37,23.36,23.21,12,3,14,0.00
2013-1-5,44.4,29.1,20.3,20.3,8.5,2.0,45,41,38,23.45,23.21,22,7,22,0.00
2013-1-6,48.0,31.0,18.1,22.9,10.0,0.1,46,41,37,23.45,23.18,11,4,13,0.00
2013-1-7,50.4,38.2,25.5,25.1,15.6,5.6,42,39,37,23.24,23.09,13,4,13,0.00
2013-1-8,52.7,40.0,26.4,26.5,17.0,6.3,42,39,36,23.42,23.06,21,6,26,0.00
2013-1-9,49.3,32.9,23.2,24.1,11.9,5.5,47,41,37,23.54,23.30,13,5,15,0.00
2013-1-10,43.5,33.1,19.9,19.6,11.9,2.4,48,41,38,23.30,22.83,10,4,13,0.00
2013-1-11,37.9,26.9,14.2,15.2,6.9,-3.7,47,42,39,22.97,22.65,42,10,42,0.00
2013-1-12,21.7,11.6,4.1,2.5,-6.1,-12.5,45,44,43,23.09,22.97,15,5,15,0.00
2013-1-13,17.4,7.0,0.1,-0.8,-9.9,-16.3,45,45,44,23.18,23.06,11,4,11,0.00
2013-1-14,17.4,8.4,0.0,0.2,-8.2,-15.5,47,46,45,23.18,23.09,13,3,13,0.00
2013-1-15,26.6,15.5,0.1,7.5,-2.1,-15.3,47,45,42,23.30,23.15,17,4,21,0.00
2013-1-16,53.6,33.7,23.0,27.3,12.5,4.7,46,41,36,23.51,23.30,13,3,15,0.00
2013-1-17,48.7,31.9,23.4,23.6,11.6,5.7,49,42,37,23.59,23.42,10,4,10,0.00
2013-1-18,59.0,38.7,27.0,31.4,15.9,6.9,43,39,35,23.42,23.30,10,4,11,0.00
2013-1-19,56.3,39.7,30.7,29.0,16.8,9.8,41,39,35,23.45,23.30,12,5,13,0.00
2013-1-20,52.0,37.5,21.7,26.2,15.0,3.7,46,40,36,23.42,23.30,22,6,22,0.00
2013-1-21,55.8,34.9,17.2,28.8,13.5,3.1,57,41,35,23.39,23.30,10,3,10,0.00
2013-1-22,65.7,44.9,32.4,35.8,20.6,11.3,41,38,33,23.42,23.27,18,5,23,0.00
2013-1-23,71.8,49.1,36.1,40.4,23.8,14.2,40,37,32,23.42,23.36,11,3,13,0.00
2013-1-24,67.1,48.0,34.7,37.1,23.1,12.9,40,37,33,23.39,23.21,22,5,24,0.00
2013-1-25,49.3,38.6,32.4,24.1,16.4,12.1,48,40,37,23.42,23.30,15,4,17,0.00
2013-1-26,53.4,42.1,33.4,27.1,19.6,14.0,46,40,36,23.30,23.00,13,3,14,0.00
2013-1-27,64.6,44.9,31.6,35.3,22.6,14.9,54,41,33,23.06,22.97,23,5,23,0.00
2013-1-28,57.2,37.8,24.1,29.8,18.4,10.7,75,47,35,23.03,22.83,24,7,26,0.00
2013-1-29,26.1,20.2,13.3,17.0,7.2,0.6,71,58,42,23.09,22.86,27,9,27,0.00
2013-1-30,35.8,21.7,6.1,13.8,5.6,-2.8,67,51,40,23.12,23.00,17,5,17,0.00
2013-1-31,52.0,33.7,23.9,26.2,12.4,5.1,51,41,36,23.33,23.12,17,6,18,0.00
2013-2-1,51.8,33.6,22.8,26.2,12.2,4.2,51,41,36,23.39,23.21,25,5,26,0.00
2013-2-2,57.0,34.7,21.6,29.5,13.5,3.0,52,41,35,23.48,23.36,10,3,10,0.00
2013-2-3,52.3,36.8,25.7,26.0,14.6,6.3,44,40,36,23.45,23.12,11,3,13,0.00
2013-2-4,54.9,36.1,25.5,28.4,13.9,5.6,42,40,36,23.21,23.12,14,4,15,0.00
2013-2-5,55.9,38.7,26.8,28.8,15.9,6.2,41,39,35,23.27,23.15,15,5,17,0.00
2013-2-6,61.7,40.7,28.9,33.1,20.4,9.4,79,45,34,23.24,23.06,22,6,22,0.00
2013-2-7,47.1,32.2,21.7,22.7,15.7,7.6,77,52,38,23.36,23.24,17,6,20,0.00
2013-2-8,52.2,34.7,21.7,26.2,13.8,4.6,50,42,36,23.30,23.00,18,6,18,0.00
2013-2-9,45.3,29.3,21.4,21.2,12.3,6.4,70,49,38,23.00,22.77,31,9,31,0.00
2013-2-10,33.3,23.1,17.4,12.1,7.3,1.4,67,51,41,23.18,22.80,19,7,23,0.00
2013-2-11,22.5,16.9,12.7,7.8,5.2,2.3,68,60,52,23.21,23.12,17,6,17,0.00
2013-2-12,42.4,23.3,11.7,19.2,5.6,-2.1,58,47,39,23.21,23.15,10,3,12,0.00
2013-2-13,47.1,30.2,18.7,22.0,9.2,-0.1,43,41,37,23.21,23.15,14,3,14,0.00
2013-2-14,41.4,25.3,17.1,18.1,6.8,1.8,54,45,39,23.39,23.21,30,8,31,0.00
2013-2-15,38.8,22.7,12.7,15.9,6.9,0.8,64,51,39,23.42,23.36,25,6,25,0.00
2013-2-16,63.5,37.2,16.2,34.5,15.6,3.9,59,42,34,23.42,23.21,17,4,17,0.00
2013-2-17,63.9,42.1,25.5,34.8,18.6,6.2,43,39,34,23.21,22.89,25,7,26,0.00
2013-2-18,47.3,28.4,18.5,22.4,10.2,0.2,68,47,37,23.24,22.97,29,6,29,0.00
2013-2-19,42.1,26.4,16.2,18.9,7.2,-1.1,57,44,39,23.24,23.00,11,4,13,0.00
2013-2-20,33.8,26.0,20.1,19.2,12.0,3.8,81,56,42,23.00,22.83,16,5,17,0.00
2013-2-21,26.6,17.4,12.0,10.1,4.0,1.0,68,55,43,23.03,22.86,29,11,29,0.00
2013-2-22,34.9,21.7,10.9,14.1,9.7,0.8,73,61,41,23.12,23.03,11,4,12,0.00
2013-2-23,47.3,29.0,12.7,22.4,9.6,-3.7,73,44,37,23.06,22.86,21,4,21,0.00
2013-2-24,28.2,22.7,17.6,19.3,11.4,6.6,83,62,49,23.21,22.89,35,15,35,0.00
2013-2-25,50.0,25.7,12.6,24.6,8.0,-0.8,66,48,37,23.21,23.03,24,6,24,0.00
2013-2-26,33.6,23.6,16.0,13.1,7.8,-1.8,73,51,41,23.24,22.97,30,10,32,0.00
2013-2-27,46.4,23.6,12.7,21.7,6.2,-1.6,73,48,37,23.36,23.24,24,5,24,0.00
2013-2-28,46.9,27.7,13.1,22.0,7.4,-4.2,45,42,37,23.39,23.30,15,2,15,0.00
2013-3-1,55.4,33.6,20.3,28.6,12.3,2.8,47,41,36,23.48,23.36,13,4,14,0.00
2013-3-2,65.1,43.0,27.0,35.3,19.4,7.5,43,39,33,23.48,23.33,10,3,10,0.00
2013-3-3,64.2,46.9,32.9,35.3,22.3,11.6,41,38,34,23.33,22.97,32,6,32,0.00
2013-3-4,45.5,30.2,12.0,21.4,12.8,-0.6,78,49,38,23.36,22.97,22,8,23,0.00
2013-3-5,45.5,25.3,12.0,21.4,9.8,-0.6,73,53,38,23.42,23.30,11,4,11,0.00
2013-3-6,68.7,42.7,21.0,38.3,19.7,6.3,60,40,33,23.30,23.12,13,4,13,0.00
2013-3-7,67.6,47.8,34.0,37.5,22.8,12.2,40,37,33,23.21,23.12,18,4,18,0.00
2013-3-8,55.9,42.9,33.1,28.8,20.5,13.7,65,41,35,23.21,22.92,13,5,15,0.00
2013-3-9,33.1,27.8,21.6,24.6,17.2,4.0,79,65,46,23.21,22.86,42,17,42,0.00
2013-3-10,40.8,27.8,17.8,17.8,9.0,2.8,60,45,39,23.27,23.21,35,12,38,0.00
2013-3-11,64.8,39.0,26.8,34.8,18.2,6.8,73,44,33,23.30,23.12,17,5,19,0.00
2013-3-12,29.3,27.6,25.9,21.6,17.8,14.9,81,66,56,23.42,23.27,12,4,13,0.00
2013-3-13,70.2,45.7,25.3,39.3,23.6,11.7,75,43,32,23.48,23.39,14,4,14,0.00
2013-3-14,73.6,51.6,37.8,41.5,25.7,15.6,40,37,31,23.54,23.39,13,4,15,0.00
2013-3-15,77.0,55.9,42.1,44.1,28.8,18.9,39,35,31,23.42,23.18,26,5,26,0.00
2013-3-16,55.6,43.6,36.1,28.6,21.8,16.4,58,42,35,23.27,23.12,19,7,19,0.00
2013-3-17,61.7,39.1,26.2,33.1,19.4,12.1,63,46,34,23.15,22.86,28,7,34,0.00
2013-3-18,54.0,35.5,21.4,27.5,13.6,2.4,44,40,36,23.18,23.06,29,7,33,0.00
2013-3-19,56.5,39.3,27.9,29.0,16.4,7.1,41,39,35,23.45,23.15,20,6,20,0.00
2013-3-20,50.2,34.5,21.2,24.9,12.9,3.0,45,41,37,23.45,23.03,25,6,28,0.00
2013-3-21,62.8,43.0,27.9,34.0,20.9,14.6,59,42,34,23.06,22.83,33,6,34,0.00
2013-3-22,43.9,32.9,26.4,25.4,17.9,10.3,85,56,38,23.09,22.89,29,11,32,0.00
2013-3-23,18.1,13.6,7.7,9.4,-0.4,-7.9,72,53,47,23.27,23.00,35,15,39,0.00
2013-3-24,29.5,14.9,6.3,8.7,-2.2,-9.2,49,46,41,23.30,23.18,20,5,21,0.00
2013-3-25,43.0,21.4,7.0,19.4,3.2,-8.1,60,45,38,23.36,23.30,15,4,15,0.00
2013-3-26,56.3,33.2,13.6,28.8,12.6,-1.6,53,43,35,23.36,23.15,14,5,16,0.00
2013-3-27,61.9,41.0,25.9,33.2,19.5,10.4,53,42,34,23.36,23.18,21,6,21,0.00
2013-3-28,63.9,45.3,30.2,35.0,23.4,15.7,57,43,34,23.36,23.30,17,4,19,0.00
2013-3-29,67.1,48.4,35.8,37.1,24.2,16.3,49,39,33,23.36,23.30,34,4,34,0.00
2013-3-30,71.1,48.7,36.3,39.7,25.4,15.8,68,41,32,23.39,23.24,23,6,26,0.00
2013-3-31,74.7,47.8,30.6,41.7,27.4,18.6,71,48,31,23.39,23.18,17,5,18,0.00
2013-4-1,58.3,40.2,31.3,30.6,19.1,12.9,57,43,35,23.36,23.24,17,7,17,0.00
2013-4-2,35.1,31.5,29.5,26.0,22.2,17.7,80,68,56,23.30,23.24,9,3,9,0.00
2013-4-3,60.6,40.7,29.7,32.8,26.7,17.0,90,63,35,23.39,23.30,20,4,26,0.00
2013-4-4,73.6,50.6,34.5,41.6,25.7,14.4,51,38,31,23.39,23.30,14,5,15,0.00
2013-4-5,72.3,55.0,40.8,40.7,28.3,17.8,39,36,32,23.30,23.06,29,6,29,0.00
2013-4-6,66.9,49.5,34.5,36.9,24.4,13.3,43,37,33,23.21,23.12,22,7,31,0.00
2013-4-7,67.6,49.6,36.1,37.5,25.4,15.9,53,39,33,23.15,23.00,32,6,32,0.00
2013-4-8,69.6,47.5,25.3,39.0,24.7,14.9,70,42,33,23.03,22.74,48,11,52,0.00
2013-4-9,25.3,12.8,6.3,15.6,-1.7,-10.1,73,52,45,23.21,22.94,42,25,44,0.00
2013-4-10,36.9,17.2,2.3,14.6,-0.8,-13.7,48,45,40,23.21,23.09,23,10,29,0.00
2013-4-11,57.4,35.8,13.8,29.8,15.7,-1.0,55,44,35,23.15,22.97,22,5,22,0.00
2013-4-12,64.9,39.9,30.4,34.8,22.1,18.6,72,50,33,23.21,23.12,16,5,17,0.00
2013-4-13,73.4,46.4,29.5,41.6,29.6,23.9,94,58,32,23.21,22.77,31,7,31,0.00
2013-4-14,55.9,43.5,33.6,28.8,23.0,12.4,80,46,35,23.03,22.77,35,12,40,0.00
2013-4-15,57.7,34.4,26.2,30.1,14.7,8.9,58,45,35,23.18,22.94,28,12,32,0.00
2013-4-16,43.0,29.7,22.8,20.0,16.5,11.9,83,59,39,23.18,23.03,26,11,26,0.00
2013-4-17,34.3,25.6,14.4,21.3,15.1,2.5,74,64,46,23.21,23.06,31,8,34,0.00
2013-4-18,39.6,21.5,10.0,17.2,5.7,-0.3,64,51,40,23.33,23.21,22,7,24,0.00
2013-4-19,55.9,35.4,18.3,28.8,13.5,0.4,48,40,35,23.33,23.18,11,4,14,0.00
2013-4-20,61.9,42.5,30.4,32.9,20.6,9.5,65,42,34,23.27,23.15,17,4,18,0.00
2013-4-21,65.1,45.5,32.4,35.2,23.2,13.9,61,42,33,23.30,23.21,22,5,26,0.00
2013-4-22,57.6,33.7,18.9,30.1,16.4,7.4,73,50,35,23.36,23.15,34,11,35,0.00
2013-4-23,31.5,22.7,16.5,14.0,9.0,4.7,65,56,42,23.36,23.27,17,4,19,0.00
2013-4-24,59.4,34.6,18.1,31.7,15.7,8.0,66,47,35,23.42,23.30,12,4,13,0.00
2013-4-25,65.3,45.0,27.9,35.5,20.8,7.8,42,38,33,23.39,23.15,23,5,23,0.00
2013-4-26,70.0,51.6,39.6,39.3,25.8,16.7,39,37,33,23.48,23.24,24,8,26,0.00
2013-4-27,81.9,56.3,38.8,47.3,29.1,16.3,40,36,30,23.48,23.30,17,4,17,0.00
2013-4-28,88.7,59.5,42.3,51.5,31.4,19.0,39,35,28,23.36,23.18,26,4,27,0.00
2013-4-29,86.0,62.0,43.5,50.1,33.3,20.2,39,34,29,23.24,23.00,24,7,26,0.00
2013-4-30,73.2,56.7,39.9,41.6,30.1,19.8,47,36,32,23.21,23.00,23,7,24,0.00
2013-5-1,39.4,29.3,20.3,26.3,20.4,12.4,78,69,50,23.65,23.21,23,4,24,0.00
2013-5-2,47.8,30.6,18.1,22.9,13.5,7.8,73,51,37,23.71,23.56,12,2,15,0.00
2013-5-3,69.1,43.5,25.2,38.6,20.4,8.0,53,40,33,23.56,23.30,23,5,23,0.00
2013-5-4,68.7,46.4,30.9,38.2,22.0,10.7,43,38,33,23.42,23.30,15,4,15,0.00
2013-5-5,56.7,42.8,32.2,29.3,19.2,11.1,41,39,35,23.42,23.33,20,6,20,0.00
2013-5-6,73.0,50.1,35.4,41.2,24.8,13.5,44,37,32,23.36,23.21,19,5,19,0.00
2013-5-7,75.7,52.8,42.8,43.0,28.0,22.3,56,39,31,23.27,23.18,22,6,22,0.00
2013-5-8,51.1,43.7,39.6,33.5,29.1,23.8,73,57,40,23.30,23.21,21,7,22,0.00
2013-5-9,53.8,41.4,35.1,39.3,32.7,26.8,92,73,38,23.45,23.30,22,4,126,0.00
2013-5-10,65.5,46.9,34.9,35.6,30.1,24.8,83,55,33,23.51,23.39,32,4,35,0.00
2013-5-11,65.3,50.1,39.9,36.1,28.4,23.6,60,44,34,23.59,23.48,21,6,21,0.00
2013-5-12,81.9,59.2,41.9,47.1,32.3,21.2,52,37,30,23.51,23.42,19,4,22,0.00
2013-5-13,82.4,64.9,50.2,47.6,35.4,24.9,37,34,29,23.48,23.39,23,4,23,0.00
2013-5-14,75.2,61.2,54.5,42.5,33.4,28.1,42,35,31,23.39,23.27,34,6,36,0.00
2013-5-15,76.3,59.1,49.8,43.1,35.0,27.0,61,41,31,23.33,23.24,18,4,18,0.00
2013-5-16,83.8,61.7,47.1,48.2,36.6,30.9,62,41,29,23.27,23.15,23,4,25,0.00
2013-5-17,88.7,65.5,48.9,51.5,38.2,31.1,59,38,28,23.24,23.12,26,5,26,0.00
2013-5-18,79.9,61.5,49.6,45.6,33.0,26.3,40,34,30,23.21,23.09,26,5,26,0.00
2013-5-19,64.8,52.6,43.7,35.3,28.0,22.5,47,39,33,23.15,23.06,26,4,27,0.00
2013-5-20,65.5,47.8,39.7,37.9,29.5,19.8,72,50,34,23.30,23.15,19,4,20,0.00
2013-5-21,71.8,50.7,36.3,40.4,30.0,23.5,72,47,32,23.30,23.18,17,3,20,0.00
2013-5-22,81.0,57.2,39.7,46.6,31.9,22.6,53,39,30,23.33,23.18,22,6,27,0.00
2013-5-23,62.1,50.3,45.0,42.9,35.9,31.1,85,59,36,23.39,23.30,22,9,23,0.00
2013-5-24,85.3,64.1,48.9,49.6,44.0,31.4,98,56,29,23.33,23.21,20,7,24,0.00
2013-5-25,93.2,68.7,48.4,54.1,39.0,27.6,49,34,27,23.30,23.18,16,5,19,0.00
2013-5-26,89.6,68.8,56.3,52.2,38.2,29.0,35,33,28,23.27,23.15,17,6,17,0.00
2013-5-27,80.6,64.7,52.7,46.3,35.5,26.5,39,34,30,23.21,23.06,20,5,32,0.00
2013-5-28,79.7,62.5,47.3,45.6,35.8,24.0,63,38,30,23.15,22.94,18,6,21,0.00
2013-5-29,72.5,56.9,47.8,40.8,33.7,23.8,71,43,32,23.06,22.92,26,9,28,0.00
2013-5-30,73.0,57.4,45.9,41.3,30.1,21.7,38,35,32,23.18,23.03,34,9,35,0.00
2013-5-31,75.2,58.4,47.3,42.5,30.8,22.9,38,35,31,23.30,23.15,36,11,36,0.00
2013-6-1,72.7,54.9,40.6,41.2,28.7,19.9,48,37,32,23.48,23.30,24,7,26,0.00
2013-6-2,83.7,61.0,42.3,48.1,33.7,23.0,49,36,29,23.48,23.21,15,6,17,0.00
2013-6-3,92.7,71.1,51.8,53.5,39.6,25.7,36,32,27,23.24,23.12,26,7,30,0.00
2013-6-4,75.9,60.9,49.1,43.1,35.2,25.7,79,39,31,23.39,23.24,28,8,33,0.00
2013-6-5,54.3,48.4,43.3,42.4,37.6,32.8,86,68,47,23.42,23.39,28,7,29,0.00
2013-6-6,80.1,59.0,45.3,45.7,38.6,30.7,85,51,30,23.42,23.33,16,3,16,0.00
2013-6-7,76.3,62.1,49.1,43.3,34.4,26.4,46,36,31,23.39,23.21,16,4,18,0.00
2013-6-8,77.4,64.7,53.2,44.4,35.6,27.7,38,34,31,23.33,23.15,28,8,32,0.00
2013-6-9,90.9,68.0,48.9,53.1,38.1,26.3,43,34,28,23.36,23.30,15,6,17,0.00
2013-6-10,98.1,74.9,59.2,57.0,42.3,31.4,35,31,26,23.33,23.24,18,4,21,0.00
2013-6-11,99.3,79.4,64.4,58.4,45.2,34.7,33,30,26,23.33,23.18,27,7,29,0.00
2013-6-12,88.5,72.4,57.2,51.5,40.6,29.8,35,32,28,23.45,23.33,24,7,28,0.00
2013-6-13,89.4,71.4,57.4,52.1,41.1,32.4,46,34,28,23.42,23.30,26,7,26,0.00
2013-6-14,90.9,70.3,59.0,53.1,39.6,32.4,38,33,28,23.36,23.24,24,6,27,0.00
2013-6-15,82.9,65.7,52.9,47.7,37.9,31.5,52,36,29,23.39,23.30,23,6,28,0.00
2013-6-16,80.8,61.4,51.6,46.5,35.9,29.4,55,39,30,23.48,23.36,28,5,31,0.00
2013-6-17,75.6,59.6,49.5,42.7,35.0,27.4,66,40,31,23.48,23.39,78,5,86,0.00
2013-6-18,84.4,61.8,49.6,49.1,39.4,33.5,71,45,29,23.45,23.24,26,7,27,0.00
2013-6-19,87.8,67.2,51.8,51.5,44.4,34.7,80,48,28,23.33,23.09,22,7,25,0.00
2013-6-20,93.2,72.4,56.3,54.3,40.5,29.0,35,32,27,23.24,23.18,22,6,24,0.00
2013-6-21,99.3,73.9,56.3,58.4,41.7,30.2,38,32,26,23.27,23.15,23,4,29,0.00
2013-6-22,93.0,71.4,56.3,54.1,40.3,30.5,42,33,27,23.27,23.12,22,6,24,0.00
2013-6-23,85.3,67.6,53.1,49.3,38.8,32.3,51,35,29,23.33,23.18,23,8,25,0.00
2013-6-24,89.1,69.5,53.2,51.6,40.7,33.5,48,36,28,23.30,23.15,19,6,22,0.00
2013-6-25,95.4,75.9,62.1,56.0,43.0,33.4,34,31,27,23.39,23.18,17,5,21,0.00
2013-6-26,95.2,75.2,58.5,55.7,42.6,30.9,35,31,27,23.45,23.36,17,6,18,0.00
2013-6-27,102.2,84.0,68.9,59.6,48.4,38.6,34,29,25,23.59,23.48,22,8,23,0.00
2013-6-28,93.0,74.5,61.7,54.0,43.8,37.7,46,34,27,23.62,23.45,26,6,32,0.00
2013-6-29,81.9,67.5,57.9,48.0,42.0,34.9,68,41,30,23.62,23.42,19,5,22,0.00
2013-6-30,76.6,62.2,56.5,52.6,41.7,33.6,73,48,32,23.54,23.45,13,4,15,0.00
2013-7-1,77.7,60.2,51.8,49.0,43.0,37.5,75,55,31,23.56,23.51,15,4,17,0.00
2013-7-2,84.7,63.9,51.1,48.8,40.7,32.0,72,45,29,23.56,23.45,20,4,23,0.00
2013-7-3,91.4,67.6,53.4,53.6,39.2,32.0,47,36,27,23.48,23.27,15,4,18,0.00
2013-7-4,93.7,71.2,56.8,54.6,40.2,31.1,39,33,27,23.36,23.27,24,5,24,0.00
2013-7-5,91.4,68.7,61.0,53.4,41.7,33.2,55,38,28,23.30,23.21,28,4,28,0.00
2013-7-6,89.2,68.4,60.4,51.8,41.3,36.3,60,38,28,23.36,23.24,24,5,24,0.00
2013-7-7,89.8,66.4,58.3,52.7,44.0,37.3,71,46,28,23.45,23.33,23,4,25,0.00
2013-7-8,97.0,73.2,57.9,57.2,45.1,37.7,63,38,26,23.45,23.36,18,5,23,0.00
2013-7-9,92.3,74.6,61.7,53.5,42.3,33.1,35,31,27,23.51,23.45,23,4,24,0.00
2013-7-10,84.0,69.0,61.0,54.5,41.7,34.7,69,38,30,23.54,23.42,20,5,20,0.00
2013-7-11,88.7,70.2,55.8,51.8,47.2,41.8,82,48,28,23.51,23.30,18,6,21,0.00
2013-7-12,93.7,74.3,65.3,54.7,43.2,37.0,40,33,27,23.39,23.30,23,6,26,0.00
2013-7-13,89.8,68.9,59.9,52.4,45.0,40.2,68,44,28,23.45,23.36,17,6,18,0.00
2013-7-14,81.7,67.1,57.9,55.5,44.4,39.7,87,47,30,23.51,23.42,24,8,25,0.00
2013-7-15,67.5,59.9,55.4,56.2,46.2,31.3,94,65,36,23.54,23.45,13,6,15,0.00
2013-7-16,76.5,62.0,49.8,48.2,40.6,36.1,70,47,31,23.56,23.45,19,8,19,0.00
2013-7-17,81.9,66.1,55.9,49.0,44.7,37.6,75,50,30,23.56,23.48,18,9,24,0.00
2013-7-18,95.4,71.2,55.8,56.1,44.0,36.8,63,40,27,23.51,23.39,23,7,25,0.00
2013-7-19,84.7,67.7,58.3,49.1,41.8,36.6,55,40,29,23.48,23.42,22,6,22,0.00
2013-7-20,84.6,68.1,56.1,52.3,47.6,40.8,79,52,29,23.45,23.30,36,5,36,0.00
2013-7-21,86.9,69.5,55.6,50.9,44.6,36.3,80,44,29,23.36,23.30,15,4,15,0.00
2013-7-22,88.9,74.4,62.6,51.5,42.1,33.9,34,31,28,23.36,23.30,17,5,24,0.00
2013-7-23,98.4,76.5,63.0,57.7,43.5,34.2,35,31,26,23.48,23.36,15,5,17,0.00
2013-7-24,71.6,63.3,56.1,57.7,48.2,39.3,86,59,35,23.54,23.45,28,7,126,0.00
2013-7-25,81.7,63.8,52.5,47.3,41.3,35.1,76,46,30,23.54,23.39,34,7,34,0.00
2013-7-26,83.8,66.3,54.3,49.1,39.7,34.8,51,38,30,23.56,23.48,15,5,16,0.00
2013-7-27,83.1,67.3,55.2,47.7,40.9,34.3,61,39,29,23.51,23.33,18,5,20,0.00
2013-7-28,73.9,60.3,55.8,55.8,49.4,42.7,84,68,35,23.39,23.30,17,2,17,0.00
2013-7-29,73.4,62.9,56.3,54.6,45.4,35.4,87,56,32,23.51,23.30,22,3,23,0.00
2013-7-30,84.4,67.0,53.6,48.7,40.8,35.9,57,40,29,23.56,23.48,15,4,18,0.00
2013-7-31,88.7,70.6,57.9,51.4,41.5,32.8,63,36,28,23.59,23.48,16,5,19,0.00
2013-8-1,79.5,66.9,58.6,50.0,44.0,36.2,71,46,31,23.56,23.33,17,4,20,0.00
2013-8-2,89.8,71.1,61.7,52.1,41.0,33.8,46,34,28,23.45,23.30,24,6,58,0.00
2013-8-3,77.2,65.4,57.6,52.1,43.4,38.4,70,46,32,23.56,23.42,15,5,16,0.00
2013-8-4,87.6,64.8,54.9,51.3,45.5,38.3,73,53,29,23.54,23.42,18,3,20,0.00
2013-8-5,90.5,68.4,57.0,53.0,41.4,35.9,66,39,28,23.48,23.39,17,5,21,0.00
2013-8-6,92.3,69.5,59.4,53.5,39.7,34.5,43,34,27,23.42,23.33,18,6,19,0.00
2013-8-7,68.2,61.0,56.8,51.8,41.8,34.3,77,51,36,23.45,23.36,11,3,12,0.00
2013-8-8,73.6,59.1,52.2,52.3,44.1,33.5,81,60,33,23.48,23.33,16,5,18,0.00
2013-8-9,70.3,56.0,50.2,48.8,41.9,35.2,83,62,33,23.54,23.45,20,3,21,0.00
2013-8-10,77.9,60.3,49.1,52.6,43.2,33.7,91,59,31,23.54,23.45,14,4,16,0.00
2013-8-11,80.2,62.1,55.0,47.0,39.5,30.7,66,45,30,23.51,23.45,17,4,19,0.00
2013-8-12,76.1,60.2,53.6,44.8,39.4,33.8,64,47,31,23.51,23.45,16,3,16,0.00
2013-8-13,74.1,60.8,50.7,44.9,39.2,35.6,67,46,32,23.54,23.45,15,3,17,0.00
2013-8-14,80.4,61.1,53.1,47.3,40.7,34.4,71,49,30,23.54,23.42,24,3,28,0.00
2013-8-15,85.1,65.0,51.8,49.3,40.0,33.8,69,42,29,23.51,23.42,17,4,18,0.00
2013-8-16,88.5,70.3,57.6,51.5,40.9,32.2,55,35,28,23.51,23.45,13,4,14,0.00
2013-8-17,90.5,71.8,58.8,52.7,41.6,31.4,45,34,28,23.48,23.39,17,5,17,0.00
2013-8-18,88.5,71.1,60.3,51.3,42.4,35.1,59,36,28,23.48,23.39,19,4,20,0.00
2013-8-19,92.3,72.0,59.0,53.6,41.8,32.3,52,34,27,23.51,23.39,14,4,15,0.00
2013-8-20,93.2,74.1,60.8,54.3,42.5,33.0,42,32,27,23.45,23.36,15,4,15,0.00
2013-8-21,91.6,72.4,62.6,53.4,40.7,33.9,35,32,27,23.45,23.39,25,5,26,0.00
2013-8-22,89.8,68.1,54.3,52.8,44.9,35.9,91,47,28,23.56,23.39,29,6,31,0.00
2013-8-23,82.0,65.9,53.8,51.9,45.5,34.2,91,53,30,23.54,23.33,17,5,17,0.00
2013-8-24,84.6,68.6,56.8,48.8,38.9,31.6,40,34,29,23.42,23.36,14,4,14,0.00
2013-8-25,86.4,70.8,59.2,50.2,41.2,34.3,41,35,29,23.48,23.42,18,4,18,0.00
2013-8-26,91.0,72.9,59.7,53.4,42.6,35.9,42,34,28,23.48,23.42,15,5,15,0.00
2013-8-27,91.8,73.6,61.7,53.6,43.5,37.2,43,34,27,23.48,23.39,14,4,14,0.00
2013-8-28,93.0,73.5,61.3,53.8,42.0,33.9,41,32,27,23.48,23.39,14,4,14,0.00
2013-8-29,93.7,74.7,61.3,54.7,42.4,33.8,36,32,27,23.51,23.45,13,4,13,0.00
2013-8-30,94.5,72.9,66.4,55.0,41.3,36.4,34,32,27,23.51,23.45,18,4,23,0.00
2013-8-31,90.9,69.0,60.6,53.1,42.6,35.0,64,40,28,23.45,23.36,15,2,24,0.00
2013-9-1,73.2,62.5,57.7,54.8,45.4,37.6,80,55,35,23.51,23.42,17,6,19,0.00
2013-9-2,84.4,66.6,56.1,52.0,46.5,37.9,81,53,29,23.48,23.39,11,3,11,0.00
2013-9-3,89.6,71.9,61.7,52.2,42.5,37.2,48,35,28,23.48,23.42,14,4,16,0.00
2013-9-4,84.7,72.6,65.8,49.3,41.3,37.0,35,32,29,23.54,23.45,13,3,15,0.00
2013-9-5,91.0,73.9,60.4,53.4,42.1,34.2,38,32,28,23.54,23.45,15,5,18,0.00
2013-9-6,93.2,74.3,62.1,54.3,41.9,33.4,34,31,27,23.51,23.42,14,4,16,0.00
2013-9-7,92.5,73.4,60.8,53.6,41.6,33.0,35,32,27,23.45,23.39,13,5,14,0.00
2013-9-8,90.7,72.3,58.6,53.0,40.7,31.4,36,32,28,23.39,23.24,15,5,19,0.00
2013-9-9,85.1,67.8,57.4,49.3,41.1,32.6,62,39,29,23.36,23.21,28,8,28,0.00
2013-9-10,74.7,61.9,56.3,52.3,44.7,39.8,83,55,32,23.45,23.33,14,4,15,0.00
2013-9-11,65.3,59.6,57.0,53.8,49.2,41.8,84,70,44,23.48,23.45,13,4,13,0.00
2013-9-12,64.4,57.9,54.5,56.9,53.2,49.5,91,84,62,23.54,23.45,0,0,0,0.00
2013-9-13,64.8,58.0,55.4,56.2,51.6,42.7,98,81,50,23.45,23.27,0,0,0,0.00
2013-9-14,72.9,58.9,50.7,52.5,44.8,38.8,88,63,34,23.30,23.21,17,3,17,0.00
2013-9-15,62.1,54.8,52.2,52.3,46.6,39.8,88,75,46,23.51,23.30,16,6,17,0.00
2013-9-16,58.8,53.8,50.2,54.3,49.9,47.2,97,87,74,23.51,23.39,0,0,0,0.00
2013-9-17,80.2,63.3,50.5,51.6,41.3,34.7,87,48,30,23.42,23.24,13,4,15,0.00
2013-9-18,83.1,64.7,53.8,47.7,37.9,32.4,48,38,29,23.27,23.18,28,4,29,0.00
2013-9-19,64.4,56.6,50.4,36.0,31.5,25.1,46,38,35,23.45,23.24,23,6,25,0.00
2013-9-20,69.4,56.6,49.3,43.5,37.6,31.7,76,51,34,23.45,23.36,13,6,13,0.00
2013-9-21,81.3,63.1,48.7,46.8,39.0,31.3,70,44,30,23.39,23.18,15,4,15,0.00
2013-9-22,73.8,60.2,50.2,42.1,36.0,29.0,73,42,31,23.18,22.97,19,4,31,0.00
2013-9-23,64.8,51.1,41.0,41.5,31.8,21.4,82,50,33,23.36,22.89,25,6,25,0.00
2013-9-24,71.6,55.2,42.6,40.2,28.4,19.0,39,36,32,23.42,23.24,17,6,20,0.00
2013-9-25,79.0,62.7,46.6,45.5,34.1,23.2,41,35,30,23.24,22.94,27,9,28,0.00
2013-9-26,77.9,63.1,51.4,44.9,34.2,25.7,38,34,31,23.09,22.97,22,6,23,0.00
2013-9-27,68.0,53.2,38.3,37.8,30.4,18.0,64,43,33,23.24,23.03,26,8,26,0.00
2013-9-28,68.9,48.6,33.6,38.6,23.6,12.4,41,37,33,23.42,23.24,15,4,15,0.00
2013-9-29,78.3,59.4,42.6,45.2,31.4,19.0,39,35,31,23.39,23.21,17,5,17,0.00
2013-9-30,83.7,65.3,51.3,48.1,35.6,25.7,37,33,29,23.27,23.12,15,5,16,0.00
2013-10-1,74.8,61.8,51.8,42.2,33.3,25.2,39,34,31,23.36,23.21,18,7,18,0.00
2013-10-2,80.2,61.4,50.0,46.0,33.8,26.0,45,36,30,23.27,23.18,13,4,14,0.00
2013-10-3,75.4,57.7,47.7,42.7,33.1,23.8,69,40,31,23.18,23.00,18,6,20,0.00
2013-10-4,49.3,37.0,27.7,38.8,22.1,10.1,73,55,40,23.36,23.03,33,13,35,0.00
2013-10-5,58.3,40.2,27.5,30.8,17.3,7.4,46,39,35,23.42,23.33,27,5,29,0.00
2013-10-6,71.6,50.5,35.6,40.2,24.8,13.7,40,37,32,23.48,23.42,10,2,10,0.00
2013-10-7,78.8,56.3,38.8,45.5,29.1,15.9,39,35,31,23.48,23.27,12,3,12,0.00
2013-10-8,75.9,62.0,50.4,43.1,33.3,25.1,37,34,31,23.27,23.09,14,3,18,0.00
2013-10-9,75.2,58.3,45.3,42.4,31.4,24.5,50,36,31,23.24,23.12,15,5,17,0.00
2013-10-10,62.2,48.5,41.5,34.1,27.5,19.9,64,45,35,23.21,22.89,23,5,25,0.00
2013-10-11,62.2,47.9,42.6,33.5,26.0,19.5,63,43,34,23.30,22.92,28,5,30,0.00
2013-10-12,55.8,44.4,38.1,33.8,27.6,19.1,76,54,36,23.42,23.30,21,8,22,0.00
2013-10-13,64.0,47.1,33.3,41.5,29.5,19.4,73,52,34,23.39,23.21,17,5,18,0.00
2013-10-14,56.7,45.0,33.6,40.3,29.2,19.6,89,57,35,23.33,23.09,28,9,28,0.00
2013-10-15,38.7,33.4,28.2,19.9,14.4,10.3,57,45,40,23.42,23.33,20,7,23,0.00
2013-10-16,55.9,38.5,28.8,28.8,21.5,14.9,81,53,35,23.39,23.21,11,3,14,0.00
2013-10-17,58.5,41.9,32.9,30.9,19.3,12.3,49,40,35,23.30,23.21,13,3,13,0.00
2013-10-18,43.0,33.3,27.0,20.6,17.3,14.4,72,52,39,23.36,23.21,17,5,17,0.00
2013-10-19,64.9,43.4,27.9,35.3,20.5,9.1,58,40,33,23.33,23.18,11,2,13,0.00
2013-10-20,52.2,41.4,31.8,26.6,21.9,15.4,76,47,36,23.33,23.15,16,4,17,0.00
2013-10-21,57.0,39.8,28.4,29.7,21.0,15.5,66,48,35,23.39,23.33,12,1,12,0.00
2013-10-22,67.1,48.0,36.5,37.1,23.1,14.5,42,37,33,23.42,23.39,14,3,14,0.00
2013-10-23,71.4,48.9,40.6,40.0,23.8,17.6,39,37,32,23.45,23.36,15,3,15,0.00
2013-10-24,61.0,45.1,36.3,32.8,22.3,16.4,50,40,34,23.45,23.39,10,4,11,0.00
2013-10-25,70.9,49.9,32.9,39.3,26.2,18.5,59,40,32,23.45,23.33,14,3,14,0.00
2013-10-26,64.6,48.9,37.9,35.3,24.6,18.5,49,39,33,23.54,23.39,17,6,20,0.00
2013-10-27,71.6,53.9,40.6,40.2,27.5,19.0,42,36,32,23.39,23.12,17,4,17,0.00
2013-10-28,52.2,42.5,31.3,26.5,21.6,17.2,68,44,37,23.21,23.15,19,6,22,0.00
2013-10-29,56.5,39.0,28.4,29.9,23.0,18.2,76,55,35,23.21,23.09,15,4,16,0.00
2013-10-30,59.9,39.5,30.7,32.2,24.8,17.7,82,58,35,23.12,23.03,22,4,25,0.00
2013-10-31,58.8,40.1,28.8,31.2,17.4,8.2,54,40,35,23.21,23.03,19,5,22,0.00
2013-11-1,48.9,40.9,33.1,23.6,18.0,14.1,45,39,37,23.71,23.21,22,6,23,0.00
2013-11-2,60.3,42.2,30.2,32.5,20.3,12.6,51,42,35,25.96,23.30,13,5,16,0.00
2013-11-3,68.0,51.1,33.3,37.8,25.6,14.8,50,37,33,30.95,23.42,27,8,32,0.00
2013-11-4,40.1,32.1,26.6,19.1,14.3,9.5,67,48,39,31.01,25.13,20,7,21,0.00
2013-11-5,37.4,28.9,20.1,16.9,10.2,1.2,59,45,39,31.01,31.01,0,0,0,0.00
2013-11-6,52.9,35.1,17.8,26.7,13.2,-0.4,44,40,36,31.01,31.01,20,4,20,0.00
2013-11-7,57.6,39.5,27.3,30.1,16.6,7.2,42,39,35,31.01,31.01,12,5,13,0.00
2013-11-8,67.8,50.6,35.2,37.7,24.9,13.4,40,37,33,31.01,31.01,23,5,23,0.00
2013-11-9,60.6,45.6,37.2,32.7,21.2,14.7,41,38,35,31.01,31.01,13,5,14,0.00
2013-11-10,69.6,46.3,32.2,39.3,22.9,14.8,52,40,33,31.01,31.01,10,3,11,0.00
2013-11-11,69.1,45.3,27.9,38.8,22.3,14.4,67,41,33,31.01,31.01,15,4,15,0.00
2013-11-12,57.2,38.5,27.0,29.7,19.6,13.6,68,48,35,31.01,31.01,12,4,13,0.00
2013-11-13,68.7,48.7,32.2,38.3,23.6,12.5,45,37,33,31.01,31.01,10,4,13,0.00
2013-11-14,60.4,45.0,35.1,32.7,21.7,17.0,49,39,35,31.01,31.01,20,8,22,0.00
2013-11-15,63.3,45.0,31.1,34.5,21.7,13.4,53,40,34,31.01,31.01,23,5,24,0.00
2013-11-16,56.7,44.3,34.9,29.2,20.5,15.0,45,38,35,31.01,31.01,36,10,41,0.00
2013-11-17,54.1,39.5,31.8,27.8,16.7,10.5,44,39,36,31.01,31.01,17,6,21,0.00
2013-11-18,59.0,39.4,25.2,31.4,16.4,5.3,42,39,35,31.01,31.01,11,4,13,0.00
2013-11-19,62.1,45.6,33.6,33.4,21.3,12.1,41,38,34,31.01,31.01,17,4,20,0.00
2013-11-20,58.3,43.9,35.8,30.8,20.1,13.7,44,38,35,31.01,31.01,13,4,13,0.00
2013-11-21,39.4,16.2,8.1,22.5,2.3,-6.3,67,54,46,31.01,31.01,24,11,24,0.00
2013-11-22,30.7,23.5,13.3,15.6,8.5,-1.6,63,52,44,31.01,31.01,15,4,17,0.00
2013-11-23,32.2,23.6,19.6,13.4,6.9,2.7,76,49,41,31.01,31.01,15,6,16,0.00
2013-11-24,32.0,24.3,18.7,25.8,14.7,10.5,84,68,41,31.01,31.01,46,6,46,0.00
2013-11-25,35.1,29.6,25.7,16.1,10.4,6.3,56,44,41,31.01,31.01,45,9,48,0.00
2013-11-26,43.9,32.3,25.0,19.9,11.6,6.2,45,42,38,31.01,31.01,19,4,19,0.00
2013-11-27,56.8,38.5,25.9,29.5,16.0,6.5,44,40,35,31.01,31.01,9,3,9,0.00
2013-11-28,45.1,34.6,25.3,21.1,14.5,10.8,65,44,38,31.01,31.01,11,4,11,0.00
2013-11-29,59.5,42.2,23.4,31.9,19.6,10.8,66,41,35,31.01,31.01,15,4,16,0.00
2013-11-30,57.6,41.3,32.9,30.1,18.0,11.8,41,39,35,31.01,31.01,13,4,14,0.00
2013-12-1,41.0,34.4,32.7,17.5,12.8,11.6,41,40,39,31.01,31.01,11,3,13,0.00
2013-12-3,31.8,18.7,10.4,11.9,5.8,-0.7,62,57,43,31.01,31.01,30,14,31,0.00
2013-12-4,10.4,3.9,-3.1,-0.7,-6.9,-13.5,60,60,60,31.01,31.01,23,10,24,0.00
2013-12-5,7.5,0.3,-4.0,-3.5,-10.3,-14.4,60,60,60,31.01,31.01,13,5,14,0.00
2013-12-6,8.1,-0.6,-7.6,-2.9,-11.2,-17.8,60,60,60,31.01,30.24,13,5,14,0.00
2013-12-7,8.6,2.2,-1.8,-2.4,-8.5,-12.3,60,60,60,31.01,31.01,12,4,13,0.00
2013-12-8,27.0,10.7,1.6,7.0,-3.3,-9.1,60,53,42,31.01,29.12,18,5,22,0.00
2013-12-9,24.1,12.2,0.3,4.5,-4.3,-13.5,51,47,42,31.01,31.01,20,5,26,0.00
2013-12-10,45.3,28.0,11.7,21.2,7.6,-5.7,46,42,38,31.01,29.00,27,6,30,0.00
2013-12-11,32.7,21.5,12.0,11.6,4.2,-1.0,57,47,41,31.01,27.40,12,5,13,0.00
2013-12-12,57.7,38.9,28.6,30.1,16.1,7.9,41,39,35,31.01,24.45,14,4,14,0.00
2013-12-13,50.5,34.7,25.9,25.2,13.0,6.0,43,40,37,31.01,31.01,20,8,23,0.00
2013-12-14,40.6,27.8,19.6,17.6,8.2,3.1,52,43,39,31.01,20.49,14,4,15,0.00
2013-12-15,54.9,39.1,27.7,28.4,16.3,7.6,42,39,36,31.01,20.05,23,4,28,0.00
2013-12-16,60.4,44.6,36.3,32.7,20.5,14.3,40,38,35,31.01,31.01,16,4,17,0.00
2013-12-17,54.7,41.1,31.8,28.3,17.9,10.8,41,39,36,31.01,23.09,13,4,17,0.00
2013-12-18,62.8,51.1,43.7,34.0,25.4,19.6,38,36,34,31.01,17.72,17,5,17,0.00
2013-12-19,56.5,41.1,22.3,29.2,19.6,10.4,69,43,35,31.01,17.72,27,7,27,0.00
2013-12-20,25.9,21.1,16.7,16.2,12.6,6.3,84,70,54,17.72,17.72,13,2,13,0.00
2013-12-21,35.1,23.1,12.0,13.8,8.1,2.5,69,53,40,17.72,17.72,20,5,20,0.00
2014-1-1,21.6,20.3,19.2,7.9,6.8,5.7,57,55,54,17.72,17.72,8,2,8,0.00
2014-1-2,45.9,28.8,15.1,21.7,11.7,4.9,68,50,38,17.72,17.72,11,4,14,0.00